FW0333 Weather Reports


Display with metric or nautical units.
time (UTC)temp
F
wind
direction
speed
MPH
gust
MPH
rain 1hr
in
rain 24hr
in
rain mn
in
humidity
%
barometer
mb
20181215155018 46 40 0.0 0.0 0.00 0.03 0.00 98 1019.1
20181215154517 46 40 0.0 0.0 0.00 0.03 0.00 98 1019.1
20181215154016 46 40 0.0 0.0 0.00 0.03 0.00 98 1019.3
20181215153515 46 40 0.0 0.0 0.00 0.03 0.00 98 1019.2
20181215153014 46 40 0.0 0.0 0.00 0.03 0.00 98 1019.3
20181215152515 46 40 0.0 0.0 0.00 0.03 0.00 98 1019.3
20181215152013 45 40 0.0 0.0 0.00 0.03 0.00 97 1019.3
20181215151512 45 40 0.0 0.0 0.00 0.03 0.00 97 1019.4
20181215151012 46 40 0.0 0.0 0.00 0.03 0.00 98 1019.1
20181215150512 46 40 0.0 0.0 0.00 0.03 0.00 98 1019.0
20181215150012 46 40 0.0 0.0 0.00 0.03 0.00 98 1019.0
20181215145513 46 40 0.0 0.0 0.00 0.03 0.00 98 1019.1
20181215145012 45 40 0.0 0.0 0.00 0.03 0.00 98 1019.0
20181215144513 45 40 0.0 0.0 0.00 0.03 0.00 98 1019.0
20181215144012 45 40 0.0 0.0 0.00 0.03 0.00 98 1019.0
20181215143512 45 40 0.0 0.0 0.00 0.03 0.00 98 1019.0
20181215143011 45 40 0.0 0.0 0.00 0.03 0.00 98 1019.1
20181215142510 45 40 0.0 0.0 0.00 0.03 0.00 98 1019.1
20181215142010 45 40 0.0 0.0 0.00 0.03 0.00 98 1019.0
20181215141510 45 40 0.0 0.0 0.00 0.03 0.00 98 1019.0
20181215141010 44 40 0.0 0.0 0.00 0.03 0.00 98 1019.0
20181215140511 44 40 0.0 0.0 0.00 0.03 0.00 98 1018.8
20181215140010 44 40 0.0 0.0 0.00 0.03 0.00 98 1018.7
20181215135510 44 40 0.0 0.0 0.00 0.03 0.00 97 1018.6
20181215135010 44 40 0.0 0.0 0.00 0.03 0.00 97 1018.6
20181215134510 44 40 0.0 0.0 0.00 0.03 0.00 97 1018.6
20181215134010 44 288 0.0 0.0 0.00 0.03 0.00 97 1018.6
20181215133508 44 289 0.0 0.0 0.00 0.03 0.00 97 1018.6
20181215133008 43 288 0.0 0.0 0.00 0.03 0.00 97 1018.5
20181215132509 43 289 0.0 0.0 0.00 0.03 0.00 97 1018.5
20181215132009 43 289 0.0 0.0 0.00 0.03 0.00 97 1018.4
20181215131508 43 289 0.0 0.0 0.00 0.03 0.00 97 1018.4
20181215131008 43 289 0.0 0.0 0.00 0.03 0.00 97 1018.3
20181215130509 43 289 0.0 0.0 0.00 0.03 0.00 97 1018.5
20181215130008 43 289 0.0 0.0 0.00 0.03 0.00 97 1018.4
20181215125508 43 289 0.0 0.0 0.00 0.03 0.00 97 1018.5
20181215125008 43 289 0.0 0.0 0.00 0.03 0.00 97 1018.6
20181215124506 44 289 0.0 0.0 0.00 0.03 0.00 97 1018.7
20181215124006 44 289 0.0 0.0 0.00 0.03 0.00 97 1018.8
20181215123506 44 281 0.0 0.0 0.00 0.03 0.00 97 1018.9
20181215123007 44 279 0.0 0.0 0.00 0.03 0.00 97 1018.7
20181215122506 45 279 0.0 0.0 0.00 0.03 0.00 97 1018.8
20181215122006 44 279 0.0 0.0 0.00 0.03 0.00 97 1018.8
20181215121506 44 2 0.0 0.0 0.00 0.03 0.00 97 1018.9
20181215121005 44 5 0.0 0.0 0.00 0.03 0.00 97 1018.9
20181215120506 44 5 0.0 0.0 0.00 0.03 0.00 97 1019.0
20181215120004 44 5 0.0 0.0 0.00 0.03 0.00 97 1018.9
20181215115501 45 5 0.0 0.0 0.00 0.03 0.00 97 1018.8
20181215115002 44 6 0.0 0.0 0.00 0.03 0.00 97 1019.1
20181215114500 44 5 0.0 0.0 0.00 0.03 0.00 97 1019.2
20181215113958 44 5 0.0 0.0 0.00 0.03 0.00 97 1019.3
20181215113458 44 5 0.0 1.0 0.00 0.03 0.00 97 1019.2
20181215112956 44 6 0.0 1.0 0.00 0.03 0.00 97 1019.2
20181215112455 45 260 0.0 0.0 0.00 0.03 0.00 97 1019.4
20181215111956 45 261 0.0 0.0 0.00 0.03 0.00 97 1019.3
20181215111453 45 261 0.0 0.0 0.00 0.03 0.00 97 1019.4
20181215110954 45 261 0.0 0.0 0.00 0.03 0.00 97 1019.4
20181215110451 45 261 0.0 0.0 0.00 0.03 0.00 97 1019.4
20181215105950 44 260 0.0 0.0 0.00 0.03 0.00 97 1019.5
20181215105449 44 260 0.0 0.0 0.00 0.03 0.00 97 1019.6
20181215104949 44 260 0.0 0.0 0.00 0.03 0.00 97 1019.7
20181215104450 44 261 0.0 1.0 0.00 0.03 0.00 97 1019.8
20181215103950 44 261 0.0 1.0 0.00 0.03 0.00 96 1019.9
20181215103450 44 261 0.0 0.0 0.00 0.03 0.00 96 1020.0
20181215102949 44 261 0.0 0.0 0.00 0.03 0.00 96 1020.1
20181215102449 44 260 0.0 0.0 0.00 0.03 0.00 96 1020.0
20181215101950 44 260 0.0 0.0 0.00 0.03 0.00 96 1020.1
20181215101449 44 260 0.0 0.0 0.00 0.03 0.00 96 1020.1
20181215100949 44 260 0.0 0.0 0.00 0.03 0.00 96 1020.0
20181215100450 44 260 0.0 0.0 0.00 0.03 0.00 96 1020.0
20181215095949 45 260 0.0 0.0 0.00 0.03 0.00 96 1020.0
20181215095449 45 260 0.0 0.0 0.00 0.03 0.00 96 1020.1
20181215094949 45 260 0.0 0.0 0.00 0.03 0.00 96 1020.1
20181215094454 45 260 0.0 0.0 0.00 0.03 0.00 96 1020.1
20181215093949 45 260 0.0 0.0 0.00 0.03 0.00 96 1020.0
20181215093449 46 260 0.0 0.0 0.00 0.03 0.00 96 1020.1
20181215092950 46 260 0.0 0.0 0.00 0.03 0.00 96 1020.1
20181215092449 46 260 0.0 0.0 0.00 0.03 0.00 96 1020.0
20181215091949 46 261 0.0 0.0 0.00 0.03 0.00 95 1020.1
20181215091450 46 261 0.0 0.0 0.00 0.03 0.00 95 1020.1
20181215090949 46 261 0.0 0.0 0.00 0.03 0.00 95 1020.0
20181215090449 46 261 0.0 0.0 0.00 0.03 0.00 95 1020.2
20181215085950 47 261 0.0 0.0 0.00 0.03 0.00 95 1020.1
20181215085449 47 261 0.0 0.0 0.00 0.03 0.00 95 1020.1
20181215084949 47 261 0.0 0.0 0.00 0.03 0.00 95 1020.1
20181215084450 47 261 0.0 0.0 0.00 0.03 0.00 95 1020.2
20181215083950 47 261 0.0 0.0 0.00 0.03 0.00 95 1020.3
20181215083449 48 261 0.0 0.0 0.00 0.03 0.00 95 1020.4
20181215082947 48 261 0.0 0.0 0.00 0.03 0.00 95 1020.4
20181215082447 48 261 0.0 0.0 0.00 0.03 0.00 95 1020.6
20181215081952 48 261 0.0 0.0 0.00 0.03 0.00 95 1020.6
20181215081447 48 261 0.0 0.0 0.00 0.03 0.00 94 1020.6
20181215080948 48 261 0.0 0.0 0.00 0.03 0.00 94 1020.6
20181215080447 48 261 0.0 0.0 0.00 0.03 0.00 94 1020.7
20181215075946 48 261 0.0 0.0 0.00 0.03 0.03 94 1020.8
20181215075445 48 261 0.0 0.0 0.00 0.03 0.03 94 1020.8
20181215074945 48 261 0.0 0.0 0.00 0.03 0.03 94 1020.7
20181215074445 49 261 0.0 0.0 0.00 0.03 0.03 95 1020.7
20181215073945 48 261 0.0 0.0 0.00 0.03 0.03 94 1020.8
20181215073444 49 260 0.0 0.0 0.00 0.03 0.03 94 1020.8
20181215072945 49 259 0.0 1.0 0.00 0.03 0.03 94 1020.8
20181215072444 49 259 0.0 1.0 0.00 0.03 0.03 94 1020.8
20181215071945 49 346 0.0 0.0 0.00 0.03 0.03 93 1020.7
20181215071446 49 346 0.0 0.0 0.00 0.03 0.03 93 1020.6
20181215070945 49 346 0.0 0.0 0.00 0.03 0.03 93 1020.7
20181215070440 49 346 0.0 0.0 0.00 0.03 0.03 93 1020.8
20181215065940 49 346 0.0 0.0 0.00 0.03 0.03 93 1020.6
20181215065441 49 346 0.0 0.0 0.00 0.03 0.03 93 1020.6
20181215064941 49 346 0.0 1.0 0.00 0.03 0.03 93 1020.6
20181215064441 49 346 0.0 1.0 0.00 0.03 0.03 93 1020.6
20181215063940 50 19 0.0 1.0 0.00 0.03 0.03 93 1020.7
20181215063441 50 243 0.0 0.0 0.00 0.03 0.03 93 1020.8
20181215062940 50 243 0.0 0.0 0.00 0.03 0.03 92 1020.8
20181215062442 50 243 0.0 0.0 0.00 0.03 0.03 92 1020.7
20181215061942 50 243 0.0 0.0 0.00 0.03 0.03 92 1020.7
20181215061440 51 243 0.0 0.0 0.00 0.03 0.03 92 1020.6
20181215060941 51 243 0.0 0.0 0.00 0.03 0.03 92 1020.4
20181215060440 51 243 0.0 0.0 0.00 0.03 0.03 92 1020.4
20181215055942 51 243 0.0 0.0 0.00 0.03 0.03 92 1020.3
20181215055440 51 243 0.0 1.0 0.00 0.03 0.03 92 1020.2
20181215054941 51 243 0.0 1.0 0.00 0.03 0.03 92 1020.2
20181215054440 51 243 0.0 1.0 0.00 0.03 0.03 93 1020.1
20181215053940 51 243 0.0 1.0 0.00 0.03 0.03 91 1020.0
20181215053440 51 243 0.0 0.0 0.00 0.03 0.03 91 1020.1
20181215052940 51 238 0.0 0.0 0.00 0.03 0.03 91 1020.0
20181215051941 51 216 0.0 1.0 0.00 0.03 0.03 92 1020.0
20181215051439 51 235 0.0 1.0 0.00 0.03 0.03 92 1019.9
20181215050938 51 227 0.0 1.0 0.00 0.03 0.03 92 1019.8
20181215050434 51 244 0.0 0.0 0.00 0.03 0.03 92 1019.8
20181215045933 51 244 0.0 1.0 0.00 0.03 0.03 92 1019.8
20181215045431 51 244 0.0 1.0 0.00 0.03 0.03 92 1019.7
20181215044928 51 244 0.0 1.0 0.00 0.03 0.03 93 1019.9
20181215044428 51 226 0.0 1.0 0.00 0.03 0.03 92 1019.8
20181215043926 51 231 0.0 1.0 0.00 0.03 0.03 92 1019.9
20181215043431 51 237 0.0 1.0 0.00 0.03 0.03 93 1019.8
20181215042925 51 237 0.0 1.0 0.00 0.03 0.03 92 1019.9
20181215042424 51 244 0.0 1.0 0.00 0.03 0.03 92 1019.9
20181215041925 51 242 0.0 1.0 0.00 0.03 0.03 92 1020.0
20181215041424 51 231 0.0 1.0 0.00 0.03 0.03 92 1020.1
20181215040924 51 234 0.0 1.0 0.00 0.03 0.03 92 1020.1
20181215040424 51 235 0.0 1.0 0.00 0.03 0.03 92 1020.1
20181215035924 51 236 0.0 1.0 0.00 0.03 0.03 92 1020.3
20181215035424 52 226 0.0 1.0 0.00 0.03 0.03 93 1020.2
20181215034924 52 210 0.0 1.0 0.00 0.03 0.03 93 1020.3
20181215034429 52 236 0.0 0.0 0.00 0.03 0.03 92 1020.2
20181215033925 52 236 0.0 1.0 0.00 0.03 0.03 93 1020.3
20181215033424 52 236 0.0 1.0 0.00 0.03 0.03 93 1020.3
20181215032924 52 236 0.0 1.0 0.00 0.03 0.03 94 1020.2
20181215032422 52 220 0.0 0.0 0.00 0.03 0.03 94 1020.2
20181215031922 52 219 0.0 0.0 0.00 0.03 0.03 94 1020.2
20181215031422 52 219 0.0 0.0 0.00 0.03 0.03 93 1020.1
20181215030922 52 219 0.0 0.0 0.00 0.03 0.03 94 1020.1
20181215030422 52 219 0.0 1.0 0.00 0.03 0.03 93 1020.2
20181215025923 52 219 0.0 1.0 0.00 0.03 0.03 93 1020.2
20181215025420 52 219 0.0 1.0 0.00 0.03 0.03 93 1020.3
20181215024922 52 219 0.0 1.0 0.00 0.03 0.03 93 1020.1
20181215024420 52 219 0.0 1.0 0.00 0.03 0.03 93 1020.1
20181215023920 52 219 0.0 1.0 0.00 0.03 0.03 92 1020.1
20181215023420 52 219 0.0 1.0 0.00 0.03 0.03 92 1020.1
20181215022920 52 217 0.0 0.0 0.00 0.03 0.03 91 1020.1
20181215022420 52 217 0.0 0.0 0.00 0.03 0.03 92 1020.1
20181215021920 52 217 0.0 1.0 0.00 0.03 0.03 91 1020.0
20181215021420 52 217 0.0 1.0 0.00 0.03 0.03 91 1019.9
20181215020917 52 210 0.0 0.0 0.00 0.03 0.03 91 1019.8
20181215020418 52 203 0.0 0.0 0.00 0.03 0.03 91 1019.7
20181215015918 52 172 0.0 1.0 0.00 0.03 0.03 92 1019.8
20181215015418 52 171 0.0 1.0 0.00 0.03 0.03 91 1019.9
20181215014918 52 227 0.0 1.0 0.00 0.03 0.03 91 1019.8
20181215014418 52 42 0.0 1.0 0.00 0.03 0.03 91 1019.8
20181215013917 52 49 0.0 0.0 0.00 0.03 0.03 91 1019.7
20181215013418 52 49 0.0 1.0 0.00 0.03 0.03 90 1019.7
20181215012918 52 49 0.0 1.0 0.00 0.03 0.03 90 1019.9
20181215012417 53 49 0.0 1.0 0.00 0.03 0.03 90 1019.9
20181215011916 53 49 0.0 2.0 0.00 0.03 0.03 89 1020.0
20181215011418 53 49 0.0 2.0 0.00 0.03 0.03 89 1019.9
20181215010916 52 34 0.0 1.0 0.00 0.03 0.03 91 1019.8
20181215010414 53 231 0.0 3.0 0.00 0.03 0.03 91 1019.9
20181215005912 53 231 0.0 3.0 0.00 0.03 0.03 90 1019.7
20181215005412 53 226 0.0 2.0 0.00 0.03 0.03 90 1019.8
20181215004912 53 70 0.0 2.0 0.00 0.03 0.03 91 1019.7
20181215004412 53 59 0.0 2.0 0.00 0.03 0.03 90 1019.9
20181215003911 53 124 0.0 1.0 0.00 0.03 0.03 90 1019.8
20181215003412 53 101 0.0 1.0 0.00 0.03 0.03 90 1019.7
20181215002912 53 26 0.0 4.0 0.00 0.03 0.03 90 1019.6
20181215002411 53 71 1.0 7.0 0.00 0.03 0.03 89 1019.6
20181215001911 53 32 1.0 7.0 0.00 0.03 0.03 89 1019.6
20181215001411 54 96 0.0 5.0 0.00 0.03 0.03 89 1019.6
20181215000910 54 71 0.0 5.0 0.00 0.03 0.03 88 1019.5
20181215000408 54 54 1.0 3.0 0.00 0.03 0.03 87 1019.5
20181214235908 54 89 1.0 4.0 0.00 0.03 0.03 87 1019.4
20181214235407 54 40 1.0 4.0 0.00 0.03 0.03 87 1019.5
20181214234906 54 228 0.0 4.0 0.00 0.03 0.03 88 1019.5
20181214234406 54 217 0.0 4.0 0.00 0.03 0.03 88 1019.5
20181214233904 54 23 0.0 1.0 0.00 0.03 0.03 87 1019.5
20181214233401 54 46 0.0 1.0 0.00 0.03 0.03 88 1019.4
20181214232859 54 44 0.0 1.0 0.00 0.03 0.03 87 1019.3
20181214232359 54 280 0.0 3.0 0.00 0.03 0.03 87 1019.4
20181214231900 54 227 0.0 3.0 0.00 0.03 0.03 88 1019.3
20181214231358 54 233 0.0 1.0 0.00 0.03 0.03 89 1019.3
20181214213351 55 18 2.0 5.0 0.00 0.03 0.03 85 1018.6
20181214212857 55 347 2.0 5.0 0.00 0.03 0.03 85 1018.5
20181214212351 55 84 1.0 5.0 0.00 0.03 0.03 86 1018.7
20181214211851 55 205 1.0 5.0 0.00 0.03 0.03 87 1018.8
20181214211350 54 17 2.0 9.0 0.00 0.03 0.03 87 1018.8
20181214210849 54 46 2.0 9.0 0.00 0.03 0.03 89 1018.8
20181214210349 54 349 1.0 7.0 0.00 0.03 0.03 89 1018.8
20181214205849 54 37 1.0 7.0 0.00 0.03 0.03 89 1018.8
20181214205349 54 242 1.0 4.0 0.00 0.03 0.03 89 1018.8
20181214204847 54 326 1.0 6.0 0.00 0.03 0.03 88 1018.9
20181214204347 54 31 1.0 8.0 0.00 0.03 0.03 90 1018.8
20181214203847 54 314 1.0 8.0 0.01 0.03 0.03 90 1018.8
20181214203346 54 34 1.0 6.0 0.01 0.03 0.03 90 1018.9
20181214202845 54 96 2.0 9.0 0.01 0.03 0.03 90 1019.0
20181214202344 54 281 2.0 10.0 0.02 0.03 0.03 89 1019.1
20181214201845 54 265 1.0 10.0 0.02 0.03 0.03 91 1019.1
20181214201345 54 115 0.0 3.0 0.02 0.03 0.03 91 1019.3
20181214200845 54 38 0.0 4.0 0.02 0.03 0.03 92 1019.4
20181214200345 54 41 1.0 9.0 0.02 0.03 0.03 91 1019.3
20181214195845 53 240 1.0 9.0 0.02 0.03 0.03 91 1019.3
20181214195345 54 205 1.0 7.0 0.02 0.03 0.03 93 1019.5
20181214194845 54 34 1.0 8.0 0.02 0.03 0.03 91 1019.3
20181214194346 54 77 2.0 9.0 0.02 0.03 0.03 91 1019.4
20181214193844 54 45 2.0 9.0 0.02 0.02 0.03 91 1019.5
20181214193343 54 225 2.0 8.0 0.02 0.02 0.02 92 1019.6
20181214192843 55 281 1.0 5.0 0.02 0.02 0.02 91 1019.5
20181214192348 55 345 0.0 3.0 0.01 0.01 0.02 90 1019.4
20181214191844 55 222 1.0 4.0 0.01 0.01 0.01 89 1019.4
20181214191343 55 59 1.0 5.0 0.01 0.01 0.01 87 1019.6
20181214190844 55 285 1.0 5.0 0.01 0.01 0.01 86 1019.6
20181214190345 56 1 1.0 10.0 0.01 0.01 0.01 87 1019.5
20181214185845 55 56 2.0 10.0 0.01 0.01 0.01 87 1019.5
20181214185344 55 57 2.0 8.0 0.01 0.01 0.01 85 1019.5
20181214184847 56 252 3.0 8.0 0.01 0.01 0.01 85 1019.9
20181214184341 56 44 3.0 15.0 0.01 0.01 0.01 83 1019.9
20181214183841 56 23 3.0 15.0 0.00 0.00 0.00 80 1019.7
20181214183341 57 15 3.0 11.0 0.00 0.00 0.00 81 1019.8
20181214182841 57 12 3.0 11.0 0.00 0.00 0.00 80 1019.7
20181214182341 57 317 3.0 12.0 0.00 0.00 0.00 80 1019.6
20181214181841 57 18 4.0 12.0 0.00 0.00 0.00 79 1019.7
20181214181341 57 29 3.0 10.0 0.00 0.00 0.00 79 1019.5
20181214180840 56 313 2.0 8.0 0.00 0.00 0.00 81 1019.4
20181214180339 56 68 1.0 5.0 0.00 0.00 0.00 82 1019.4
20181214175838 56 307 1.0 5.0 0.00 0.00 0.00 81 1019.3
20181214175341 56 273 2.0 15.0 0.00 0.00 0.00 82 1018.9
20181214174839 56 23 2.0 15.0 0.00 0.00 0.00 82 1018.8
20181214174339 56 11 1.0 9.0 0.00 0.00 0.00 82 1018.8
20181214173839 56 207 1.0 9.0 0.00 0.00 0.00 83 1018.2
20181214173339 57 75 2.0 9.0 0.00 0.00 0.00 80 1018.0
20181214172839 57 73 2.0 11.0 0.00 0.00 0.00 80 1017.7
20181214172339 56 231 3.0 15.0 0.00 0.00 0.00 80 1017.1
20181214171838 56 316 4.0 16.0 0.00 0.00 0.00 80 1016.9
20181214171337 56 311 4.0 16.0 0.00 0.00 0.00 80 1016.6
20181214170837 56 40 4.0 13.0 0.00 0.00 0.00 80 1016.6
20181214170335 57 146 5.0 15.0 0.00 0.00 0.00 81 1016.7
20181214165835 56 4 4.0 15.0 0.00 0.00 0.00 81 1017.1
20181214165335 56 38 4.0 15.0 0.00 0.00 0.00 81 1016.9
20181214164834 56 79 5.0 18.0 0.00 0.00 0.00 81 1017.0
20181214164335 56 54 5.0 18.0 0.00 0.00 0.00 82 1017.2
20181214163835 56 359 4.0 16.0 0.00 0.00 0.00 82 1017.5
20181214163342 56 11 4.0 13.0 0.00 0.00 0.00 83 1017.7
20181214162834 56 26 3.0 12.0 0.00 0.00 0.00 83 1017.7
20181214162335 55 20 2.0 7.0 0.00 0.00 0.00 85 1017.5
20181214161835 55 213 1.0 7.0 0.00 0.00 0.00 85 1017.5
20181214161335 55 148 1.0 7.0 0.00 0.00 0.00 85 1017.2
20181214160832 55 319 3.0 15.0 0.00 0.00 0.00 85 1017.5
20181214160333 55 327 4.0 15.0 0.00 0.00 0.00 85 1017.3
20181214155833 55 70 4.0 12.0 0.00 0.00 0.00 85 1017.7
20181214155333 55 19 4.0 14.0 0.00 0.00 0.00 85 1017.6